Time,TemperatureF,DewpointF,PressureIn,WindDirection,WindDirectionDegrees,WindSpeedMPH,WindSpeedGustMPH,Humidity,HourlyPrecipIn,Conditions,Clouds,dailyrainin,SoftwareType,DateUTC
2013-06-06 00:01:00,64.7,58.7,29.71,NW,309,0.0,0.0,81,0.00,,,0.00,Wunderground v.1.15,2013-06-06 04:01:00,
2013-06-06 00:02:00,64.6,59.0,29.71,NW,309,1.0,1.0,82,0.00,,,0.00,Wunderground v.1.15,2013-06-06 04:02:00,
2013-06-06 00:05:00,64.1,58.5,29.71,NW,314,1.0,2.0,82,0.00,,,0.00,Wunderground v.1.15,2013-06-06 04:05:00,
2013-06-06 00:07:00,63.8,58.5,29.71,NW,314,0.0,2.0,83,0.00,,,0.00,Wunderground v.1.15,2013-06-06 04:07:00,
2013-06-06 00:12:00,63.3,58.4,29.71,NW,311,0.0,1.0,84,0.00,,,0.00,Wunderground v.1.15,2013-06-06 04:12:00,
2013-06-06 00:17:00,63.0,58.4,29.71,NNW,335,1.0,1.0,85,0.00,,,0.00,Wunderground v.1.15,2013-06-06 04:17:00,
2013-06-06 00:23:00,62.7,58.1,29.70,NW,315,1.0,2.0,85,0.00,,,0.00,Wunderground v.1.15,2013-06-06 04:23:00,
2013-06-06 00:30:00,62.4,57.8,29.71,NW,315,0.0,1.0,85,0.00,,,0.00,Wunderground v.1.15,2013-06-06 04:30:00,
2013-06-06 00:35:00,62.4,58.2,29.71,NW,315,0.0,1.0,86,0.00,,,0.00,Wunderground v.1.15,2013-06-06 04:35:00,
2013-06-06 00:40:00,62.2,58.0,29.71,NW,315,0.0,0.0,86,0.00,,,0.00,Wunderground v.1.15,2013-06-06 04:40:00,
2013-06-06 00:46:00,62.1,57.9,29.71,NW,315,0.0,1.0,86,0.00,,,0.00,Wunderground v.1.15,2013-06-06 04:46:00,
2013-06-06 00:55:00,61.8,57.9,29.71,NW,309,0.0,2.0,87,0.00,,,0.00,Wunderground v.1.15,2013-06-06 04:55:00,
2013-06-06 01:00:00,61.6,57.7,29.71,NW,316,1.0,1.0,87,0.00,,,0.00,Wunderground v.1.15,2013-06-06 05:00:00,
2013-06-06 01:06:00,61.5,57.6,29.71,NW,316,0.0,1.0,87,0.00,,,0.00,Wunderground v.1.15,2013-06-06 05:06:00,
2013-06-06 01:12:00,61.1,57.5,29.71,NW,316,2.0,2.0,88,0.00,,,0.00,Wunderground v.1.15,2013-06-06 05:12:00,
2013-06-06 01:17:00,61.0,57.7,29.71,NW,315,0.0,2.0,89,0.00,,,0.00,Wunderground v.1.15,2013-06-06 05:17:00,
2013-06-06 01:23:00,60.8,57.5,29.71,NW,315,0.0,0.0,89,0.00,,,0.00,Wunderground v.1.15,2013-06-06 05:23:00,
2013-06-06 01:29:00,60.6,57.3,29.71,NW,315,0.0,0.0,89,0.00,,,0.00,Wunderground v.1.15,2013-06-06 05:29:00,
2013-06-06 01:34:00,60.4,57.1,29.71,NW,315,0.0,0.0,89,0.00,,,0.00,Wunderground v.1.15,2013-06-06 05:34:00,
2013-06-06 01:40:00,60.3,57.0,29.70,NW,315,0.0,0.0,89,0.00,,,0.00,Wunderground v.1.15,2013-06-06 05:40:00,
2013-06-06 01:46:00,59.9,57.0,29.70,NW,304,0.0,1.0,90,0.00,,,0.00,Wunderground v.1.15,2013-06-06 05:46:00,
2013-06-06 01:53:00,59.7,56.8,29.70,NW,304,1.0,1.0,90,0.00,,,0.00,Wunderground v.1.15,2013-06-06 05:53:00,
2013-06-06 02:02:00,59.6,57.0,29.69,NW,304,0.0,0.0,91,0.00,,,0.00,Wunderground v.1.15,2013-06-06 06:02:00,
2013-06-06 02:07:00,59.4,56.5,29.69,NW,304,0.0,0.0,90,0.00,,,0.00,Wunderground v.1.15,2013-06-06 06:07:00,
2013-06-06 02:13:00,59.1,56.5,29.69,NW,304,0.0,0.0,91,0.00,,,0.00,Wunderground v.1.15,2013-06-06 06:13:00,
2013-06-06 02:18:00,59.0,56.4,29.69,NW,304,0.0,0.0,91,0.00,,,0.00,Wunderground v.1.15,2013-06-06 06:18:00,
2013-06-06 02:24:00,58.8,56.2,29.69,NW,304,0.0,0.0,91,0.00,,,0.00,Wunderground v.1.15,2013-06-06 06:24:00,
2013-06-06 02:29:00,58.6,56.0,29.69,NW,304,0.0,0.0,91,0.00,,,0.00,Wunderground v.1.15,2013-06-06 06:29:00,
2013-06-06 02:34:00,58.5,55.9,29.69,NW,304,0.0,0.0,91,0.00,,,0.00,Wunderground v.1.15,2013-06-06 06:34:00,
2013-06-06 02:39:00,58.4,56.1,29.69,NW,304,0.0,0.0,92,0.00,,,0.00,Wunderground v.1.15,2013-06-06 06:39:00,
2013-06-06 02:44:00,58.2,55.9,29.69,NW,304,0.0,0.0,92,0.00,,,0.00,Wunderground v.1.15,2013-06-06 06:44:00,
2013-06-06 02:49:00,58.1,55.8,29.69,South,180,0.0,1.0,92,0.00,,,0.00,Wunderground v.1.15,2013-06-06 06:49:00,
2013-06-06 02:54:00,57.9,55.3,29.69,South,181,0.0,1.0,91,0.00,,,0.00,Wunderground v.1.15,2013-06-06 06:54:00,
2013-06-06 02:59:00,57.8,55.5,29.69,South,181,0.0,1.0,92,0.00,,,0.00,Wunderground v.1.15,2013-06-06 06:59:00,
2013-06-06 03:04:00,57.9,55.6,29.69,South,182,0.0,0.0,92,0.00,,,0.00,Wunderground v.1.15,2013-06-06 07:04:00,
2013-06-06 03:09:00,58.1,56.1,29.69,South,181,0.0,1.0,93,0.00,,,0.00,Wunderground v.1.15,2013-06-06 07:09:00,
2013-06-06 03:14:00,58.2,56.2,29.69,South,181,0.0,0.0,93,0.00,,,0.00,Wunderground v.1.15,2013-06-06 07:14:00,
2013-06-06 03:19:00,58.3,56.3,29.69,South,181,0.0,0.0,93,0.00,,,0.00,Wunderground v.1.15,2013-06-06 07:19:00,
2013-06-06 03:25:00,58.4,56.4,29.69,South,181,0.0,0.0,93,0.00,,,0.00,Wunderground v.1.15,2013-06-06 07:25:00,
2013-06-06 03:30:00,58.5,56.5,29.69,WNW,298,0.0,0.0,93,0.00,,,0.00,Wunderground v.1.15,2013-06-06 07:30:00,
2013-06-06 03:35:00,58.6,56.6,29.69,WNW,297,0.0,1.0,93,0.00,,,0.00,Wunderground v.1.15,2013-06-06 07:35:00,
2013-06-06 03:42:00,58.7,56.7,29.68,WNW,298,0.0,0.0,93,0.00,,,0.00,Wunderground v.1.15,2013-06-06 07:42:00,
2013-06-06 03:50:00,58.9,56.9,29.68,WNW,298,0.0,0.0,93,0.00,,,0.00,Wunderground v.1.15,2013-06-06 07:50:00,
2013-06-06 03:56:00,59.0,57.0,29.68,WNW,298,0.0,0.0,93,0.00,,,0.00,Wunderground v.1.15,2013-06-06 07:56:00,
2013-06-06 04:01:00,59.1,57.1,29.68,WNW,298,0.0,0.0,93,0.00,,,0.00,Wunderground v.1.15,2013-06-06 08:01:00,
2013-06-06 04:08:00,59.2,57.2,29.68,WNW,298,0.0,0.0,93,0.00,,,0.00,Wunderground v.1.15,2013-06-06 08:08:00,
2013-06-06 04:16:00,59.3,57.3,29.68,WNW,298,0.0,1.0,93,0.00,,,0.00,Wunderground v.1.15,2013-06-06 08:16:00,
2013-06-06 04:22:00,59.3,57.0,29.68,WNW,298,0.0,0.0,92,0.00,,,0.00,Wunderground v.1.15,2013-06-06 08:22:00,
2013-06-06 04:28:00,59.3,57.0,29.67,WNW,298,0.0,0.0,92,0.00,,,0.00,Wunderground v.1.15,2013-06-06 08:28:00,
2013-06-06 04:34:00,59.3,57.0,29.67,WNW,298,0.0,0.0,92,0.00,,,0.00,Wunderground v.1.15,2013-06-06 08:34:00,
2013-06-06 04:39:00,59.3,57.0,29.67,WNW,297,0.0,0.0,92,0.00,,,0.00,Wunderground v.1.15,2013-06-06 08:39:00,
2013-06-06 04:44:00,59.3,57.0,29.68,WNW,297,0.0,0.0,92,0.00,,,0.00,Wunderground v.1.15,2013-06-06 08:44:00,
2013-06-06 04:49:00,59.3,57.0,29.67,WNW,298,0.0,0.0,92,0.00,,,0.00,Wunderground v.1.15,2013-06-06 08:49:00,
2013-06-06 04:55:00,59.2,56.9,29.67,WNW,298,0.0,0.0,92,0.00,,,0.00,Wunderground v.1.15,2013-06-06 08:55:00,
2013-06-06 05:00:00,59.1,56.8,29.67,NE,39,2.0,2.0,92,0.00,,,0.00,Wunderground v.1.15,2013-06-06 09:00:00,
2013-06-06 05:05:00,59.0,56.7,29.67,NNE,20,0.0,2.0,92,0.00,,,0.00,Wunderground v.1.15,2013-06-06 09:05:00,
2013-06-06 05:12:00,59.0,56.7,29.67,NNE,22,0.0,1.0,92,0.00,,,0.00,Wunderground v.1.15,2013-06-06 09:12:00,
2013-06-06 05:17:00,58.9,56.6,29.67,NNE,20,0.0,1.0,92,0.00,,,0.00,Wunderground v.1.15,2013-06-06 09:17:00,
2013-06-06 05:22:00,58.9,56.6,29.67,NNE,20,0.0,0.0,92,0.00,,,0.00,Wunderground v.1.15,2013-06-06 09:22:00,
2013-06-06 05:27:00,58.9,56.6,29.67,NNE,20,0.0,0.0,92,0.00,,,0.00,Wunderground v.1.15,2013-06-06 09:27:00,
2013-06-06 05:33:00,58.8,56.5,29.67,NNE,20,1.0,1.0,92,0.00,,,0.00,Wunderground v.1.15,2013-06-06 09:33:00,
2013-06-06 05:38:00,58.7,56.4,29.67,NNE,20,0.0,1.0,92,0.00,,,0.00,Wunderground v.1.15,2013-06-06 09:38:00,
2013-06-06 05:43:00,58.6,56.3,29.67,NNE,20,0.0,0.0,92,0.00,,,0.00,Wunderground v.1.15,2013-06-06 09:43:00,
2013-06-06 05:48:00,58.6,56.3,29.67,West,260,0.0,1.0,92,0.00,,,0.00,Wunderground v.1.15,2013-06-06 09:48:00,
2013-06-06 05:54:00,58.6,56.3,29.67,West,262,0.0,0.0,92,0.00,,,0.00,Wunderground v.1.15,2013-06-06 09:54:00,
2013-06-06 05:59:00,58.6,56.0,29.67,NE,36,1.0,3.0,91,0.00,,,0.00,Wunderground v.1.15,2013-06-06 09:59:00,
2013-06-06 06:04:00,58.5,55.9,29.67,NNW,340,0.0,1.0,91,0.00,,,0.00,Wunderground v.1.15,2013-06-06 10:04:00,
2013-06-06 06:09:00,58.5,55.9,29.67,NNW,340,0.0,1.0,91,0.00,,,0.00,Wunderground v.1.15,2013-06-06 10:09:00,
2013-06-06 06:14:00,58.6,56.3,29.67,NNW,340,0.0,0.0,92,0.00,,,0.00,Wunderground v.1.15,2013-06-06 10:14:00,
2013-06-06 06:19:00,58.6,56.3,29.68,NNW,340,0.0,0.0,92,0.00,,,0.00,Wunderground v.1.15,2013-06-06 10:19:00,
2013-06-06 06:24:00,58.7,56.4,29.67,NNW,340,0.0,1.0,92,0.00,,,0.00,Wunderground v.1.15,2013-06-06 10:24:00,
2013-06-06 06:30:00,58.7,56.4,29.68,NNW,340,0.0,0.0,92,0.00,,,0.00,Wunderground v.1.15,2013-06-06 10:30:00,
2013-06-06 06:35:00,58.7,56.4,29.68,NNW,340,0.0,0.0,92,0.00,,,0.00,Wunderground v.1.15,2013-06-06 10:35:00,
2013-06-06 06:40:00,58.8,56.5,29.68,NNW,340,0.0,0.0,92,0.00,,,0.00,Wunderground v.1.15,2013-06-06 10:40:00,
2013-06-06 06:47:00,58.8,56.5,29.68,NNW,341,0.0,0.0,92,0.00,,,0.00,Wunderground v.1.15,2013-06-06 10:47:00,
2013-06-06 06:53:00,58.7,56.4,29.68,NNW,341,0.0,1.0,92,0.00,,,0.00,Wunderground v.1.15,2013-06-06 10:53:00,
2013-06-06 06:58:00,58.8,56.5,29.68,NNW,342,0.0,1.0,92,0.00,,,0.00,Wunderground v.1.15,2013-06-06 10:58:00,
2013-06-06 07:03:00,58.8,56.5,29.68,NNW,341,0.0,1.0,92,0.00,,,0.00,Wunderground v.1.15,2013-06-06 11:03:00,
2013-06-06 07:08:00,58.9,56.3,29.68,NNW,341,0.0,1.0,91,0.00,,,0.00,Wunderground v.1.15,2013-06-06 11:08:00,
2013-06-06 07:14:00,59.0,56.7,29.68,NNW,341,0.0,0.0,92,0.00,,,0.00,Wunderground v.1.15,2013-06-06 11:14:00,
2013-06-06 07:19:00,59.1,56.5,29.68,NNW,341,1.0,1.0,91,0.00,,,0.00,Wunderground v.1.15,2013-06-06 11:19:00,
2013-06-06 07:24:00,59.2,56.6,29.68,NNW,341,0.0,1.0,91,0.00,,,0.00,Wunderground v.1.15,2013-06-06 11:24:00,
2013-06-06 07:29:00,59.4,56.8,29.68,NNW,341,0.0,1.0,91,0.00,,,0.00,Wunderground v.1.15,2013-06-06 11:29:00,
2013-06-06 07:34:00,59.5,57.2,29.67,NNW,341,0.0,0.0,92,0.00,,,0.00,Wunderground v.1.15,2013-06-06 11:34:00,
2013-06-06 07:39:00,59.7,57.4,29.67,North,349,0.0,1.0,92,0.00,,,0.00,Wunderground v.1.15,2013-06-06 11:39:00,
2013-06-06 07:44:00,59.7,57.4,29.67,NNW,348,0.0,0.0,92,0.00,,,0.00,Wunderground v.1.15,2013-06-06 11:44:00,
2013-06-06 07:49:00,59.8,57.2,29.68,North,349,0.0,0.0,91,0.00,,,0.00,Wunderground v.1.15,2013-06-06 11:49:00,
2013-06-06 07:55:00,59.9,57.3,29.68,North,349,0.0,0.0,91,0.00,,,0.00,Wunderground v.1.15,2013-06-06 11:55:00,
2013-06-06 08:00:00,60.1,57.5,29.68,NNW,348,0.0,0.0,91,0.00,,,0.00,Wunderground v.1.15,2013-06-06 12:00:00,
2013-06-06 08:06:00,60.0,57.4,29.68,NNW,345,0.0,1.0,91,0.00,,,0.01,Wunderground v.1.15,2013-06-06 12:06:00,
2013-06-06 08:12:00,60.0,57.4,29.68,NNW,345,0.0,0.0,91,0.00,,,0.01,Wunderground v.1.15,2013-06-06 12:12:00,
2013-06-06 08:18:00,60.1,57.5,29.68,NNW,344,0.0,0.0,91,0.00,,,0.01,Wunderground v.1.15,2013-06-06 12:18:00,
2013-06-06 08:24:00,59.9,57.3,29.68,NNW,344,0.0,1.0,91,0.04,,,0.02,Wunderground v.1.15,2013-06-06 12:24:00,
2013-06-06 08:31:00,59.7,57.1,29.68,NNW,345,0.0,0.0,91,0.08,,,0.03,Wunderground v.1.15,2013-06-06 12:31:00,
2013-06-06 08:37:00,59.6,57.3,29.68,NNW,345,0.0,0.0,92,0.06,,,0.03,Wunderground v.1.15,2013-06-06 12:37:00,
2013-06-06 08:43:00,59.6,57.3,29.68,NNW,344,0.0,0.0,92,0.04,,,0.03,Wunderground v.1.15,2013-06-06 12:43:00,
2013-06-06 08:48:00,59.6,57.3,29.68,NNW,345,0.0,0.0,92,0.00,,,0.04,Wunderground v.1.15,2013-06-06 12:48:00,
2013-06-06 08:54:00,59.7,57.4,29.67,NNW,328,0.0,0.0,92,0.00,,,0.04,Wunderground v.1.15,2013-06-06 12:54:00,
2013-06-06 08:59:00,59.6,57.3,29.67,NNW,328,0.0,0.0,92,0.00,,,0.04,Wunderground v.1.15,2013-06-06 12:59:00,
2013-06-06 09:05:00,59.6,57.3,29.67,NW,323,0.0,1.0,92,0.04,,,0.05,Wunderground v.1.15,2013-06-06 13:05:00,
2013-06-06 09:10:00,59.4,57.1,29.66,NNW,335,0.0,0.0,92,0.04,,,0.05,Wunderground v.1.15,2013-06-06 13:10:00,
2013-06-06 09:16:00,59.4,57.1,29.66,NNW,334,0.0,0.0,92,0.05,,,0.06,Wunderground v.1.15,2013-06-06 13:16:00,
2013-06-06 09:23:00,59.3,57.3,29.66,NNW,335,0.0,0.0,93,0.05,,,0.06,Wunderground v.1.15,2013-06-06 13:23:00,
2013-06-06 09:29:00,59.5,57.5,29.66,NNW,335,0.0,0.0,93,0.00,,,0.06,Wunderground v.1.15,2013-06-06 13:29:00,
2013-06-06 09:34:00,59.8,57.8,29.66,NNW,336,0.0,0.0,93,0.00,,,0.07,Wunderground v.1.15,2013-06-06 13:34:00,
2013-06-06 09:41:00,59.7,57.1,29.66,NNW,335,0.0,0.0,91,0.00,,,0.07,Wunderground v.1.15,2013-06-06 13:41:00,
2013-06-06 09:47:00,60.2,57.9,29.66,NNW,335,0.0,0.0,92,0.00,,,0.07,Wunderground v.1.15,2013-06-06 13:47:00,
2013-06-06 09:52:00,60.3,56.7,29.66,West,281,0.0,1.0,88,0.00,,,0.07,Wunderground v.1.15,2013-06-06 13:52:00,
2013-06-06 09:57:00,60.7,57.4,29.66,West,281,0.0,1.0,89,0.00,,,0.07,Wunderground v.1.15,2013-06-06 13:57:00,
2013-06-06 10:02:00,61.2,57.9,29.66,West,281,0.0,0.0,89,0.00,,,0.07,Wunderground v.1.15,2013-06-06 14:02:00,
2013-06-06 10:07:00,61.5,58.2,29.65,NE,40,1.0,1.0,89,0.00,,,0.07,Wunderground v.1.15,2013-06-06 14:07:00,
2013-06-06 10:12:00,61.6,58.0,29.65,NE,40,0.0,0.0,88,0.00,,,0.07,Wunderground v.1.15,2013-06-06 14:12:00,
2013-06-06 10:17:00,62.0,58.7,29.65,WSW,250,0.0,1.0,89,0.00,,,0.07,Wunderground v.1.15,2013-06-06 14:17:00,
2013-06-06 10:23:00,62.4,58.8,29.66,SSE,155,0.0,1.0,88,0.00,,,0.07,Wunderground v.1.15,2013-06-06 14:23:00,
2013-06-06 10:28:00,62.4,58.5,29.65,ESE,117,0.0,2.0,87,0.00,,,0.07,Wunderground v.1.15,2013-06-06 14:28:00,
2013-06-06 10:34:00,62.6,58.7,29.65,SE,138,0.0,3.0,87,0.00,,,0.07,Wunderground v.1.15,2013-06-06 14:34:00,
2013-06-06 10:39:00,62.6,58.4,29.66,ESE,115,1.0,3.0,86,0.00,,,0.07,Wunderground v.1.15,2013-06-06 14:39:00,
2013-06-06 10:44:00,62.6,59.0,29.66,ESE,120,1.0,1.0,88,0.00,,,0.08,Wunderground v.1.15,2013-06-06 14:44:00,
2013-06-06 10:49:00,62.5,58.3,29.66,ESE,104,0.0,2.0,86,0.00,,,0.08,Wunderground v.1.15,2013-06-06 14:49:00,
2013-06-06 10:54:00,62.5,58.9,29.66,ESE,104,0.0,0.0,88,0.00,,,0.08,Wunderground v.1.15,2013-06-06 14:54:00,
2013-06-06 10:59:00,62.7,59.1,29.66,SW,222,0.0,0.0,88,0.00,,,0.08,Wunderground v.1.15,2013-06-06 14:59:00,
2013-06-06 11:05:00,62.8,59.2,29.66,ENE,75,0.0,1.0,88,0.00,,,0.09,Wunderground v.1.15,2013-06-06 15:05:00,
2013-06-06 11:10:00,62.8,59.2,29.65,NNE,29,1.0,1.0,88,0.00,,,0.09,Wunderground v.1.15,2013-06-06 15:10:00,
2013-06-06 11:17:00,62.7,59.1,29.65,East,91,0.0,2.0,88,0.00,,,0.09,Wunderground v.1.15,2013-06-06 15:17:00,
2013-06-06 11:22:00,62.8,59.2,29.65,West,261,0.0,1.0,88,0.00,,,0.09,Wunderground v.1.15,2013-06-06 15:22:00,
2013-06-06 11:27:00,63.0,59.7,29.65,West,262,0.0,1.0,89,0.00,,,0.09,Wunderground v.1.15,2013-06-06 15:27:00,
2013-06-06 11:33:00,62.9,59.3,29.65,ENE,60,0.0,1.0,88,0.00,,,0.10,Wunderground v.1.15,2013-06-06 15:33:00,
2013-06-06 11:38:00,62.8,59.2,29.65,East,79,0.0,1.0,88,0.00,,,0.10,Wunderground v.1.15,2013-06-06 15:38:00,
2013-06-06 11:43:00,62.9,59.9,29.65,ENE,62,0.0,1.0,90,0.08,,,0.11,Wunderground v.1.15,2013-06-06 15:43:00,
2013-06-06 11:48:00,63.0,60.0,29.65,SSW,203,0.0,1.0,90,0.08,,,0.12,Wunderground v.1.15,2013-06-06 15:48:00,
2013-06-06 11:53:00,63.3,60.3,29.65,SE,124,0.0,0.0,90,0.08,,,0.12,Wunderground v.1.15,2013-06-06 15:53:00,
2013-06-06 12:00:00,63.3,60.3,29.65,East,100,0.0,0.0,90,0.05,,,0.12,Wunderground v.1.15,2013-06-06 16:00:00,
2013-06-06 12:06:00,63.4,60.4,29.64,South,169,0.0,1.0,90,0.00,,,0.13,Wunderground v.1.15,2013-06-06 16:06:00,
2013-06-06 12:11:00,63.4,60.4,29.64,SE,133,0.0,1.0,90,0.00,,,0.13,Wunderground v.1.15,2013-06-06 16:11:00,
2013-06-06 12:16:00,63.4,60.7,29.65,SE,133,0.0,1.0,91,0.00,,,0.13,Wunderground v.1.15,2013-06-06 16:16:00,
2013-06-06 12:21:00,63.5,60.8,29.65,ESE,108,1.0,1.0,91,0.04,,,0.14,Wunderground v.1.15,2013-06-06 16:21:00,
2013-06-06 12:26:00,63.3,60.3,29.65,East,84,0.0,1.0,90,0.04,,,0.14,Wunderground v.1.15,2013-06-06 16:26:00,
2013-06-06 12:31:00,63.2,60.5,29.65,SE,134,0.0,1.0,91,0.06,,,0.15,Wunderground v.1.15,2013-06-06 16:31:00,
2013-06-06 12:37:00,63.1,60.4,29.65,ESE,103,0.0,1.0,91,0.09,,,0.16,Wunderground v.1.15,2013-06-06 16:37:00,
2013-06-06 12:42:00,62.8,60.1,29.65,SSE,149,1.0,1.0,91,0.16,,,0.17,Wunderground v.1.15,2013-06-06 16:42:00,
2013-06-06 12:47:00,62.8,60.4,29.65,SSE,148,0.0,1.0,92,0.16,,,0.18,Wunderground v.1.15,2013-06-06 16:47:00,
2013-06-06 12:52:00,62.6,59.9,29.65,ESE,108,0.0,2.0,91,0.13,,,0.19,Wunderground v.1.15,2013-06-06 16:52:00,
2013-06-06 12:57:00,62.6,60.2,29.65,ENE,77,1.0,2.0,92,0.14,,,0.20,Wunderground v.1.15,2013-06-06 16:57:00,
2013-06-06 13:02:00,62.6,59.9,29.65,East,82,1.0,2.0,91,0.12,,,0.21,Wunderground v.1.15,2013-06-06 17:02:00,
2013-06-06 13:07:00,62.5,60.1,29.65,NE,46,0.0,2.0,92,0.08,,,0.22,Wunderground v.1.15,2013-06-06 17:07:00,
2013-06-06 13:13:00,62.5,60.1,29.64,SE,138,1.0,1.0,92,0.08,,,0.22,Wunderground v.1.15,2013-06-06 17:13:00,
2013-06-06 13:19:00,62.8,60.4,29.64,ENE,63,0.0,2.0,92,0.06,,,0.23,Wunderground v.1.15,2013-06-06 17:19:00,
2013-06-06 13:24:00,62.5,59.8,29.64,NNE,19,0.0,3.0,91,0.06,,,0.23,Wunderground v.1.15,2013-06-06 17:24:00,
2013-06-06 13:31:00,62.6,60.2,29.64,SE,140,0.0,1.0,92,0.04,,,0.23,Wunderground v.1.15,2013-06-06 17:31:00,
2013-06-06 13:36:00,62.7,60.3,29.64,SE,141,1.0,1.0,92,0.04,,,0.24,Wunderground v.1.15,2013-06-06 17:36:00,
2013-06-06 13:41:00,62.8,60.4,29.63,SE,133,0.0,0.0,92,0.08,,,0.25,Wunderground v.1.15,2013-06-06 17:41:00,
2013-06-06 13:47:00,62.9,60.5,29.63,SE,132,0.0,0.0,92,0.09,,,0.26,Wunderground v.1.15,2013-06-06 17:47:00,
2013-06-06 13:52:00,63.0,60.6,29.63,East,82,0.0,1.0,92,0.09,,,0.26,Wunderground v.1.15,2013-06-06 17:52:00,
2013-06-06 13:57:00,62.8,60.1,29.63,ENE,70,0.0,2.0,91,0.06,,,0.26,Wunderground v.1.15,2013-06-06 17:57:00,
2013-06-06 14:02:00,63.0,60.6,29.62,NNE,15,0.0,0.0,92,0.05,,,0.27,Wunderground v.1.15,2013-06-06 18:02:00,
2013-06-06 14:07:00,63.0,60.3,29.62,ENE,77,0.0,1.0,91,0.08,,,0.28,Wunderground v.1.15,2013-06-06 18:07:00,
2013-06-06 14:13:00,63.0,60.3,29.62,NE,34,1.0,1.0,91,0.08,,,0.28,Wunderground v.1.15,2013-06-06 18:13:00,
2013-06-06 14:18:00,62.9,60.2,29.62,ENE,65,0.0,1.0,91,0.08,,,0.29,Wunderground v.1.15,2013-06-06 18:18:00,
2013-06-06 14:23:00,63.1,60.7,29.62,NE,51,0.0,1.0,92,0.08,,,0.30,Wunderground v.1.15,2013-06-06 18:23:00,
2013-06-06 14:28:00,62.8,60.1,29.61,NNE,30,0.0,1.0,91,0.07,,,0.30,Wunderground v.1.15,2013-06-06 18:28:00,
2013-06-06 14:34:00,63.0,60.6,29.61,NNE,30,0.0,0.0,92,0.06,,,0.31,Wunderground v.1.15,2013-06-06 18:34:00,
2013-06-06 14:39:00,62.9,59.9,29.61,NNE,30,0.0,0.0,90,0.06,,,0.31,Wunderground v.1.15,2013-06-06 18:39:00,
2013-06-06 14:44:00,62.8,59.8,29.61,NE,34,0.0,2.0,90,0.04,,,0.31,Wunderground v.1.15,2013-06-06 18:44:00,
2013-06-06 14:49:00,62.6,59.9,29.61,NE,34,0.0,2.0,91,0.00,,,0.32,Wunderground v.1.15,2013-06-06 18:49:00,
2013-06-06 14:56:00,62.9,60.5,29.61,NE,34,0.0,0.0,92,0.00,,,0.32,Wunderground v.1.15,2013-06-06 18:56:00,
2013-06-06 15:02:00,62.9,60.5,29.61,NE,34,0.0,0.0,92,0.00,,,0.32,Wunderground v.1.15,2013-06-06 19:02:00,
2013-06-06 15:07:00,62.9,60.2,29.61,North,6,0.0,0.0,91,0.00,,,0.32,Wunderground v.1.15,2013-06-06 19:07:00,
2013-06-06 15:13:00,62.7,60.0,29.61,NNW,335,0.0,1.0,91,0.12,,,0.33,Wunderground v.1.15,2013-06-06 19:13:00,
2013-06-06 15:18:00,62.6,59.9,29.61,NNW,335,0.0,1.0,91,0.17,,,0.35,Wunderground v.1.15,2013-06-06 19:18:00,
2013-06-06 15:23:00,62.6,59.9,29.61,SW,224,0.0,1.0,91,0.14,,,0.36,Wunderground v.1.15,2013-06-06 19:23:00,
2013-06-06 15:28:00,62.6,59.9,29.61,SW,228,1.0,1.0,91,0.11,,,0.37,Wunderground v.1.15,2013-06-06 19:28:00,
2013-06-06 15:33:00,62.7,60.3,29.60,SW,227,0.0,0.0,92,0.17,,,0.38,Wunderground v.1.15,2013-06-06 19:33:00,
2013-06-06 15:34:00,62.7,60.3,29.60,SW,228,0.0,0.0,92,0.14,,,0.38,Wunderground v.1.15,2013-06-06 19:34:00,
2013-06-06 15:40:00,62.6,60.2,29.60,SW,223,1.0,1.0,92,0.08,,,0.39,Wunderground v.1.15,2013-06-06 19:40:00,
2013-06-06 15:45:00,62.5,60.1,29.60,SW,224,0.0,1.0,92,0.10,,,0.40,Wunderground v.1.15,2013-06-06 19:45:00,
2013-06-06 15:50:00,62.5,60.1,29.60,SW,224,0.0,0.0,92,0.19,,,0.41,Wunderground v.1.15,2013-06-06 19:50:00,
2013-06-06 15:55:00,62.6,60.2,29.60,SW,224,0.0,0.0,92,0.13,,,0.43,Wunderground v.1.15,2013-06-06 19:55:00,
2013-06-06 16:02:00,62.8,60.4,29.59,SW,224,0.0,0.0,92,0.13,,,0.44,Wunderground v.1.15,2013-06-06 20:02:00,
2013-06-06 16:08:00,62.7,60.3,29.59,SW,224,0.0,0.0,92,0.12,,,0.45,Wunderground v.1.15,2013-06-06 20:08:00,
2013-06-06 16:14:00,62.8,60.4,29.59,SW,223,0.0,0.0,92,0.08,,,0.46,Wunderground v.1.15,2013-06-06 20:14:00,
2013-06-06 16:20:00,62.9,60.5,29.59,SW,214,0.0,0.0,92,0.08,,,0.46,Wunderground v.1.15,2013-06-06 20:20:00,
2013-06-06 16:25:00,62.9,60.5,29.58,SW,214,0.0,0.0,92,0.08,,,0.47,Wunderground v.1.15,2013-06-06 20:25:00,
2013-06-06 16:30:00,63.0,60.6,29.58,SW,215,1.0,1.0,92,0.06,,,0.48,Wunderground v.1.15,2013-06-06 20:30:00,
2013-06-06 16:35:00,62.9,60.5,29.59,SW,215,0.0,1.0,92,0.06,,,0.48,Wunderground v.1.15,2013-06-06 20:35:00,
2013-06-06 16:40:00,62.8,60.4,29.58,SW,215,0.0,0.0,92,0.06,,,0.48,Wunderground v.1.15,2013-06-06 20:40:00,
2013-06-06 16:46:00,62.9,60.5,29.59,SW,215,0.0,0.0,92,0.04,,,0.49,Wunderground v.1.15,2013-06-06 20:46:00,
2013-06-06 16:51:00,62.9,60.5,29.58,SW,222,0.0,0.0,92,0.04,,,0.49,Wunderground v.1.15,2013-06-06 20:51:00,
2013-06-06 16:57:00,62.9,60.5,29.58,West,269,0.0,1.0,92,0.06,,,0.50,Wunderground v.1.15,2013-06-06 20:57:00,
2013-06-06 17:02:00,62.9,60.5,29.58,West,269,0.0,0.0,92,0.06,,,0.50,Wunderground v.1.15,2013-06-06 21:02:00,
2013-06-06 17:08:00,63.0,60.6,29.58,West,269,0.0,1.0,92,0.05,,,0.51,Wunderground v.1.15,2013-06-06 21:08:00,
2013-06-06 17:13:00,63.2,60.8,29.58,West,269,0.0,0.0,92,0.05,,,0.51,Wunderground v.1.15,2013-06-06 21:13:00,
2013-06-06 17:18:00,63.3,60.9,29.58,West,269,0.0,0.0,92,0.07,,,0.52,Wunderground v.1.15,2013-06-06 21:18:00,
2013-06-06 17:24:00,63.4,61.0,29.57,West,269,0.0,0.0,92,0.07,,,0.52,Wunderground v.1.15,2013-06-06 21:24:00,
2013-06-06 17:29:00,63.6,61.5,29.57,West,269,0.0,0.0,93,0.05,,,0.53,Wunderground v.1.15,2013-06-06 21:29:00,
2013-06-06 17:35:00,63.6,61.5,29.56,West,269,0.0,0.0,93,0.05,,,0.53,Wunderground v.1.15,2013-06-06 21:35:00,
2013-06-06 17:42:00,63.5,61.4,29.56,West,281,1.0,1.0,93,0.05,,,0.54,Wunderground v.1.15,2013-06-06 21:42:00,
2013-06-06 17:47:00,63.4,61.3,29.56,North,9,0.0,1.0,93,0.05,,,0.54,Wunderground v.1.15,2013-06-06 21:47:00,
2013-06-06 17:52:00,63.5,61.4,29.56,North,9,0.0,1.0,93,0.06,,,0.55,Wunderground v.1.15,2013-06-06 21:52:00,
2013-06-06 17:57:00,63.6,61.5,29.57,North,9,0.0,1.0,93,0.06,,,0.55,Wunderground v.1.15,2013-06-06 21:57:00,
2013-06-06 18:03:00,63.6,61.5,29.56,North,9,0.0,0.0,93,0.05,,,0.56,Wunderground v.1.15,2013-06-06 22:03:00,
2013-06-06 18:08:00,63.6,61.5,29.56,North,9,0.0,0.0,93,0.09,,,0.57,Wunderground v.1.15,2013-06-06 22:08:00,
2013-06-06 18:13:00,63.6,61.5,29.56,North,9,0.0,0.0,93,0.09,,,0.57,Wunderground v.1.15,2013-06-06 22:13:00,
2013-06-06 18:18:00,63.6,61.5,29.56,North,9,0.0,0.0,93,0.06,,,0.57,Wunderground v.1.15,2013-06-06 22:18:00,
2013-06-06 18:24:00,63.7,61.6,29.56,North,9,0.0,0.0,93,0.04,,,0.58,Wunderground v.1.15,2013-06-06 22:24:00,
2013-06-06 18:31:00,63.8,61.7,29.56,North,8,0.0,0.0,93,0.04,,,0.58,Wunderground v.1.15,2013-06-06 22:31:00,
2013-06-06 18:38:00,63.8,61.7,29.56,North,9,0.0,1.0,93,0.06,,,0.59,Wunderground v.1.15,2013-06-06 22:38:00,
2013-06-06 18:43:00,63.9,61.8,29.56,North,9,0.0,0.0,93,0.09,,,0.60,Wunderground v.1.15,2013-06-06 22:43:00,
2013-06-06 18:48:00,64.0,61.9,29.56,North,9,0.0,0.0,93,0.13,,,0.61,Wunderground v.1.15,2013-06-06 22:48:00,
2013-06-06 18:54:00,64.0,61.9,29.56,North,9,0.0,0.0,93,0.08,,,0.62,Wunderground v.1.15,2013-06-06 22:54:00,
2013-06-06 18:59:00,64.1,62.3,29.55,North,9,0.0,0.0,94,0.08,,,0.62,Wunderground v.1.15,2013-06-06 22:59:00,
2013-06-06 19:04:00,64.1,62.0,29.56,North,9,0.0,0.0,93,0.05,,,0.62,Wunderground v.1.15,2013-06-06 23:04:00,
2013-06-06 19:10:00,64.1,62.0,29.55,North,9,0.0,1.0,93,0.00,,,0.62,Wunderground v.1.15,2013-06-06 23:10:00,
2013-06-06 19:15:00,64.0,62.2,29.55,North,9,0.0,0.0,94,0.00,,,0.63,Wunderground v.1.15,2013-06-06 23:15:00,
2013-06-06 19:24:00,64.0,62.2,29.55,North,9,0.0,0.0,94,0.05,,,0.64,Wunderground v.1.15,2013-06-06 23:24:00,
2013-06-06 19:29:00,63.9,62.1,29.55,North,9,0.0,0.0,94,0.05,,,0.64,Wunderground v.1.15,2013-06-06 23:29:00,
2013-06-06 19:34:00,63.9,62.1,29.55,North,9,0.0,0.0,94,0.05,,,0.65,Wunderground v.1.15,2013-06-06 23:34:00,
2013-06-06 19:39:00,63.9,62.1,29.55,North,9,0.0,0.0,94,0.14,,,0.66,Wunderground v.1.15,2013-06-06 23:39:00,
2013-06-06 19:45:00,63.9,62.1,29.55,North,9,0.0,0.0,94,0.09,,,0.67,Wunderground v.1.15,2013-06-06 23:45:00,
2013-06-06 19:50:00,63.9,62.1,29.55,North,9,0.0,0.0,94,0.10,,,0.68,Wunderground v.1.15,2013-06-06 23:50:00,
2013-06-06 19:55:00,63.9,62.1,29.55,North,9,0.0,0.0,94,0.19,,,0.69,Wunderground v.1.15,2013-06-06 23:55:00,
2013-06-06 20:00:00,63.9,62.1,29.55,North,9,0.0,0.0,94,0.10,,,0.70,Wunderground v.1.15,2013-06-07 00:00:00,
2013-06-06 20:06:00,63.9,62.1,29.55,North,9,0.0,0.0,94,0.08,,,0.70,Wunderground v.1.15,2013-06-07 00:06:00,
2013-06-06 20:11:00,64.0,62.2,29.55,North,9,0.0,0.0,94,0.08,,,0.71,Wunderground v.1.15,2013-06-07 00:11:00,
2013-06-06 20:16:00,64.0,62.2,29.55,North,9,0.0,0.0,94,0.09,,,0.72,Wunderground v.1.15,2013-06-07 00:16:00,
2013-06-06 20:22:00,63.9,62.1,29.54,North,9,0.0,0.0,94,0.08,,,0.73,Wunderground v.1.15,2013-06-07 00:22:00,
2013-06-06 20:27:00,63.9,62.1,29.54,North,9,0.0,0.0,94,0.08,,,0.73,Wunderground v.1.15,2013-06-07 00:27:00,
2013-06-06 20:33:00,63.9,62.1,29.54,North,9,0.0,0.0,94,0.05,,,0.73,Wunderground v.1.15,2013-06-07 00:33:00,
2013-06-06 20:38:00,63.8,62.0,29.54,North,9,0.0,0.0,94,0.05,,,0.74,Wunderground v.1.15,2013-06-07 00:38:00,
2013-06-06 20:43:00,63.7,61.9,29.54,North,9,0.0,0.0,94,0.05,,,0.74,Wunderground v.1.15,2013-06-07 00:43:00,
2013-06-06 20:48:00,63.7,61.9,29.53,North,9,0.0,0.0,94,0.04,,,0.74,Wunderground v.1.15,2013-06-07 00:48:00,
2013-06-06 20:54:00,63.8,62.0,29.53,North,9,0.0,1.0,94,0.04,,,0.75,Wunderground v.1.15,2013-06-07 00:54:00,
2013-06-06 20:59:00,63.8,62.0,29.53,NW,311,0.0,1.0,94,0.04,,,0.75,Wunderground v.1.15,2013-06-07 00:59:00,
2013-06-06 21:04:00,63.8,62.0,29.54,NW,318,1.0,1.0,94,0.04,,,0.75,Wunderground v.1.15,2013-06-07 01:04:00,
2013-06-06 21:09:00,63.9,62.1,29.54,ENE,58,1.0,3.0,94,0.00,,,0.75,Wunderground v.1.15,2013-06-07 01:09:00,
2013-06-06 21:14:00,64.1,62.3,29.54,SSE,167,0.0,1.0,94,0.00,,,0.75,Wunderground v.1.15,2013-06-07 01:14:00,
2013-06-06 21:19:00,64.2,62.4,29.54,South,187,0.0,1.0,94,0.00,,,0.75,Wunderground v.1.15,2013-06-07 01:19:00,
2013-06-06 21:24:00,64.2,62.4,29.54,SSE,165,0.0,3.0,94,0.00,,,0.75,Wunderground v.1.15,2013-06-07 01:24:00,
2013-06-06 21:29:00,64.2,62.4,29.54,ESE,114,0.0,3.0,94,0.00,,,0.75,Wunderground v.1.15,2013-06-07 01:29:00,
2013-06-06 21:38:00,64.2,62.4,29.54,WSW,256,0.0,1.0,94,0.00,,,0.75,Wunderground v.1.15,2013-06-07 01:38:00,
2013-06-06 21:44:00,64.2,62.4,29.54,South,188,0.0,0.0,94,0.00,,,0.75,Wunderground v.1.15,2013-06-07 01:44:00,
2013-06-06 21:51:00,64.2,62.4,29.54,ESE,123,0.0,1.0,94,0.00,,,0.75,Wunderground v.1.15,2013-06-07 01:51:00,
2013-06-06 21:58:00,64.2,62.4,29.54,ESE,121,0.0,1.0,94,0.00,,,0.75,Wunderground v.1.15,2013-06-07 01:58:00,
2013-06-06 22:04:00,64.2,62.4,29.54,SSE,150,0.0,2.0,94,0.00,,,0.75,Wunderground v.1.15,2013-06-07 02:04:00,
2013-06-06 22:09:00,64.1,62.3,29.55,SSW,211,0.0,2.0,94,0.00,,,0.75,Wunderground v.1.15,2013-06-07 02:09:00,
2013-06-06 22:14:00,64.1,62.3,29.55,ESE,122,1.0,2.0,94,0.00,,,0.75,Wunderground v.1.15,2013-06-07 02:14:00,
2013-06-06 22:19:00,64.1,62.3,29.55,East,98,0.0,3.0,94,0.00,,,0.75,Wunderground v.1.15,2013-06-07 02:19:00,
2013-06-06 22:25:00,64.1,62.3,29.55,ESE,118,0.0,1.0,94,0.00,,,0.75,Wunderground v.1.15,2013-06-07 02:25:00,
2013-06-06 22:30:00,64.1,62.3,29.54,SE,124,1.0,1.0,94,0.00,,,0.75,Wunderground v.1.15,2013-06-07 02:30:00,
2013-06-06 22:36:00,64.1,62.3,29.54,NE,41,0.0,1.0,94,0.00,,,0.75,Wunderground v.1.15,2013-06-07 02:36:00,
2013-06-06 22:42:00,64.1,62.3,29.54,SSE,153,1.0,3.0,94,0.00,,,0.75,Wunderground v.1.15,2013-06-07 02:42:00,
2013-06-06 22:47:00,64.1,62.3,29.54,SE,136,0.0,3.0,94,0.00,,,0.75,Wunderground v.1.15,2013-06-07 02:47:00,
2013-06-06 22:52:00,64.1,62.3,29.54,SE,136,0.0,1.0,94,0.00,,,0.75,Wunderground v.1.15,2013-06-07 02:52:00,
2013-06-06 22:58:00,64.1,62.0,29.54,East,90,1.0,1.0,93,0.00,,,0.75,Wunderground v.1.15,2013-06-07 02:58:00,
2013-06-06 23:03:00,64.0,61.9,29.54,South,190,0.0,3.0,93,0.00,,,0.75,Wunderground v.1.15,2013-06-07 03:03:00,
2013-06-06 23:08:00,63.9,61.8,29.54,SW,217,0.0,3.0,93,0.00,,,0.75,Wunderground v.1.15,2013-06-07 03:08:00,
2013-06-06 23:14:00,63.8,62.0,29.54,ESE,113,0.0,2.0,94,0.00,,,0.75,Wunderground v.1.15,2013-06-07 03:14:00,
2013-06-06 23:19:00,63.7,61.6,29.54,NE,51,1.0,3.0,93,0.00,,,0.75,Wunderground v.1.15,2013-06-07 03:19:00,
2013-06-06 23:24:00,63.7,61.6,29.54,NE,37,0.0,1.0,93,0.00,,,0.75,Wunderground v.1.15,2013-06-07 03:24:00,
2013-06-06 23:29:00,63.6,61.8,29.54,NE,39,0.0,1.0,94,0.00,,,0.75,Wunderground v.1.15,2013-06-07 03:29:00,
2013-06-06 23:34:00,63.6,61.8,29.53,North,8,0.0,2.0,94,0.00,,,0.75,Wunderground v.1.15,2013-06-07 03:34:00,
2013-06-06 23:39:00,63.5,61.7,29.53,North,7,0.0,2.0,94,0.00,,,0.75,Wunderground v.1.15,2013-06-07 03:39:00,
2013-06-06 23:45:00,63.5,61.7,29.53,North,8,0.0,0.0,94,0.00,,,0.75,Wunderground v.1.15,2013-06-07 03:45:00,
2013-06-06 23:50:00,63.4,61.6,29.53,North,7,0.0,0.0,94,0.00,,,0.75,Wunderground v.1.15,2013-06-07 03:50:00,
2013-06-06 23:55:00,63.4,61.6,29.52,North,7,0.0,0.0,94,0.00,,,0.75,Wunderground v.1.15,2013-06-07 03:55:00,